This demonstration page uses our WeatherBlox Daily Observations layout. Learn more.

Left ArrowRight Arrow

Hourly Observations for May 27, 2015

Temp ( °F °C ) Dew Point ( °F °C ) Humidity (%) Winds ( mph kmh ) Pressure ( in mb ) Visibility ( mi km ) Precip ( " mm )
12:53 am 00:53 Clear 71 21.7 51 10.6 49 49 SW 5 7 29.90 1012 10 16 0.00 0.00
1:53 am 01:53 Partly Cloudy 71 21.7 50 10 47 47 SSW 6 9 29.91 1013 10 16 0.00 0.00
2:53 am 02:53 Mostly Cloudy 68 20 49 9.4 51 51 SW 5 7 29.92 1013 10 16 0.00 0.00
3:53 am 03:53 Mostly Clear 65 18.3 49 9.4 56 56 Calm 29.93 1014 10 16 0.00 0.00
4:53 am 04:53 Clear 64 17.8 48 8.9 56 56 Calm 29.93 1014 10 16 0.00 0.00
5:53 am 05:53 Sunny 61 16.1 49 9.4 65 65 Calm 29.94 1014 10 16 0.00 0.00
6:53 am 06:53 Sunny 63 17.2 50 10 63 63 S 3 6 29.95 1014 10 16 0.00 0.00
7:53 am 07:53 Sunny 65 18.3 50 10 59 59 VRB 3 6 29.96 1014 10 16 0.00 0.00
8:53 am 08:53 Sunny 69 20.6 49 9.4 49 49 VRB 3 6 29.95 1014 10 16 0.00 0.00
9:53 am 09:53 Sunny 73 22.8 49 9.4 43 43 Calm 29.94 1014 10 16 0.00 0.00
10:53 am 10:53 Sunny 77 25 46 7.8 33 33 Calm 29.92 1013 10 16 0.00 0.00
11:53 am 11:53 Sunny 81 27.2 48 8.9 32 32 SW 5 7 29.91 1013 10 16 0.00 0.00
12:53 pm 12:53 Sunny 85 29.4 38 3.3 19 19 S 8 13 29.89 1012 10 16 0.00 0.00
1:53 pm 13:53 Sunny 87 30.6 41 5 20 20 VRB 3 6 29.87 1012 10 16 0.00 0.00
2:53 pm 14:53 Sunny 89 31.7 43 6.1 20 20 SSW 7 11 29.85 1011 10 16 0.00 0.00
3:53 pm 15:53 Sunny 89 31.7 44 6.7 21 21 VRB 7 11 29.84 1011 10 16 0.00 0.00
4:53 pm 16:53 Sunny 90 32.2 44 6.7 20 20 SSE 15 24 29.83 1010 10 16 0.00 0.00
5:53 pm 17:53 Sunny 88 31.1 45 7.2 22 22 SE 12 19 29.83 1010 10 16 0.00 0.00
6:53 pm 18:53 Sunny 87 30.6 47 8.3 25 25 SSE 14 22 29.83 1010 10 16 0.00 0.00
7:53 pm 19:53 Sunny 83 28.3 49 9.4 31 31 SSE 13 20 29.84 1011 10 16 0.00 0.00
8:53 pm 20:53 Clear 78 25.6 52 11.1 40 40 S 7 11 29.86 1011 10 16 0.00 0.00
9:53 pm 21:53 Clear 75 23.9 44 6.7 33 33 Calm 29.88 1012 10 16 0.00 0.00
10:53 pm 22:53 Clear 72 22.2 48 8.9 43 43 NNE 5 7 29.91 1013 10 16 0.00 0.00
11:53 pm 23:53 Clear 69 20.6 49 9.4 49 49 Calm 29.92 1013 10 16 0.00 0.00

Powered by AerisWeather